Dewpoint
56 56 56 56 57 57 57 57 57 58 59 59 59 59 59 59 58 46 31 35 41 59 53 26 21 21 20 23 23 23 21 21 17 18 20 29 28 35 33 23 23 24 39 55 58
55 56 56 56 57 57 57 57 58 58 58 59 59 59 59 59 43 24 39 57 62 62 28 19 16 15 15 15 22 22 23 20 20 19 20 23 27 31 26 20 24 32 47 51 51
55 56 56 56 56 57 57 58 58 58 59 59 58 59 59 56 38 17 57 60 63 54 30 24 21 14 15 12 13 17 20 15 15 17 18 21 27 24 23 22 24 27 41 46 46
56 56 56 56 56 57 57 57 58 58 58 58 58 58 59 44 18 22 60 63 64 38 27 20 18 17 16 13 12 10 12 14 12 13 16 18 23 17 19 21 19 25 37 43 42
55 56 56 56 56 57 57 57 58 58 58 58 58 59 44 27 16 27 61 55 37 30 18 16 15 16 15 14 14 14 13 12 12 12 13 14 14 15 18 23 18 35 40 42 41
56 55 55 56 57 57 57 57 57 57 58 58 58 58 41 22 19 22 24 20 24 18 15 14 14 16 15 14 14 14 14 11 11 12 12 12 12 15 23 24 18 35 36 40 43
56 56 55 56 56 57 57 56 56 56 58 58 59 43 29 18 19 20 18 17 16 17 16 16 16 14 13 13 13 12 12 11 12 12 12 11 13 16 27 23 17 28 38 40 44
56 56 56 56 56 57 57 56 56 57 58 59 59 39 25 17 19 16 17 14 14 16 18 19 17 18 16 16 11 9 11 10 13 13 12 13 12 21 26 24 22 26 35 42 44
56 56 56 56 56 57 56 56 56 57 58 58 42 38 20 34 16 17 15 13 14 15 18 18 17 17 15 12 10 12 8 8 15 16 11 13 15 29 30 28 26 29 34 40 44
55 55 55 55 56 56 55 55 55 54 49 38 27 27 20 17 18 19 17 17 17 16 18 17 16 15 13 9 7 10 10 8 11 17 13 12 12 30 31 29 27 25 32 38 44
55 55 55 55 55 55 50 39 36 35 26 28 25 25 16 19 20 18 17 18 19 20 19 18 10 10 10 13 11 10 10 10 14 21 20 18 20 26 33 32 26 26 31 38 45
55 54 55 55 55 55 49 33 33 33 29 22 23 22 21 20 19 18 19 18 18 18 16 14 8 13 12 12 11 9 10 13 20 20 21 21 24 25 33 31 31 33 35 40 45
54 54 54 55 54 49 35 32 33 36 34 22 21 18 18 21 18 18 17 16 18 17 15 15 17 14 10 8 10 13 14 16 18 23 23 20 20 22 33 35 35 38 41 43 45
53 54 54 54 46 35 36 32 34 38 33 24 22 22 20 20 19 19 19 18 16 18 16 17 17 13 15 14 15 17 17 16 17 19 16 24 20 22 33 36 37 39 42 43 46
53 54 54 52 44 33 33 34 37 42 31 24 20 20 19 17 20 21 22 24 20 19 20 21 17 16 17 17 18 18 21 20 20 20 21 19 19 21 31 31 36 40 42 43 45
52 53 53 42 39 32 33 37 41 36 27 22 17 15 16 15 16 19 20 23 23 23 22 21 22 20 20 23 21 21 20 21 24 22 20 20 18 17 26 29 33 38 40 43 44
52 53 50 42 38 36 36 37 33 28 28 20 18 20 16 17 17 18 21 24 24 26 26 24 23 23 23 20 23 24 25 22 22 22 25 25 19 19 27 29 26 35 39 41 42
51 51 51 40 37 38 38 34 30 27 23 26 24 21 20 23 23 23 24 24 27 25 21 22 22 25 26 24 25 27 27 20 21 19 18 22 20 26 30 31 31 35 36 39 41
49 49 44 42 40 41 36 28 26 27 27 25 23 22 23 25 24 26 26 26 28 29 29 26 25 26 24 25 25 26 25 29 28 24 20 18 23 29 31 32 33 33 37 38 39
46 44 40 41 44 43 36 31 29 29 29 27 26 28 26 25 26 26 28 32 29 31 33 29 29 27 27 27 26 26 27 27 26 27 23 18 19 26 30 31 32 33 34 35 36
50 37 41 39 39 39 33 32 29 29 29 29 28 29 28 29 28 26 25 32 34 34 34 32 33 28 29 29 26 28 26 28 29 27 23 19 21 32 33 32 33 31 34 36 37
44 31 40 38 34 33 30 32 35 29 30 30 32 31 30 31 31 28 27 33 37 36 34 38 39 32 29 30 29 29 29 31 28 28 28 29 29 33 33 31 33 33 33 34 36
34 29 36 38 29 29 36 30 31 31 31 31 31 31 33 32 32 28 29 35 36 35 40 42 36 33 30 32 32 29 27 28 31 33 29 25 24 30 30 32 33 34 34 35 35
34 27 33 35 38 39 33 30 30 31 30 32 32 32 32 31 33 31 29 36 37 36 41 45 40 36 30 29 31 31 28 27 30 33 28 24 26 26 29 33 33 34 34 33 33
35 38 38 30 32 34 35 31 29 29 31 31 31 30 31 33 31 31 31 32 35 41 38 41 38 35 32 30 28 27 26 25 26 27 29 27 25 27 35 35 34 34 33 31 31
36 35 38 30 34 32 33 27 29 28 32 30 32 31 32 34 34 34 33 34 35 38 38 40 38 36 33 29 28 26 21 21 22 26 27 26 27 37 36 34 33 32 32 34 35
42 43 38 36 31 29 27 31 31 36 33 33 34 35 34 35 36 37 37 38 38 39 39 40 40 37 32 31 27 25 27 26 25 25 28 29 33 33 34 32 33 34 38 38 38
Lifted_Index
12 12 11 11 11 11 11 11 11 11 11 11 11 11 11 10 9 9 8 9 10 10 9 9 8 8 7 6 4 3 1 -1 -1 -1 -0 -0 -1 -1 -0 1 2 2 -0 -3 -3
12 12 11 11 11 11 11 11 11 11 11 11 11 11 10 10 9 9 9 10 10 10 9 8 7 7 6 5 4 2 0 -0 -0 -0 -0 -0 -1 -1 0 1 2 1 -1 -2 -2
12 12 11 11 11 11 11 11 11 11 11 11 11 10 10 9 8 9 10 11 10 9 8 8 7 6 5 4 3 2 1 0 0 1 0 -0 -0 0 1 1 2 1 -0 -1 -1
12 12 12 11 11 11 12 12 12 11 11 11 11 10 10 8 8 9 10 10 10 9 8 7 6 5 4 3 2 2 1 1 2 2 1 -0 0 1 1 2 2 1 0 -1 -1
12 12 12 12 12 12 12 12 12 12 12 11 11 10 9 8 8 9 10 10 9 8 8 7 6 4 3 2 2 2 2 2 2 2 1 1 1 1 2 3 3 1 0 -1 -1
12 12 12 12 12 12 12 12 12 12 12 11 11 10 9 8 9 9 9 9 9 8 7 6 6 5 3 3 2 2 2 3 3 3 2 2 2 2 3 3 3 2 0 -1 -1
12 12 12 12 12 12 12 12 12 12 12 11 10 9 8 8 9 9 9 9 9 8 7 7 6 5 4 3 3 3 2 2 2 3 3 2 2 3 3 3 3 2 1 -1 -1
12 12 12 12 12 11 12 12 12 12 12 11 10 8 8 9 9 9 9 8 8 8 8 7 6 5 4 4 3 2 2 1 1 2 3 2 2 2 3 3 3 2 1 -0 -1
12 12 12 11 10 10 10 10 10 11 11 10 9 8 8 8 9 9 8 8 8 8 8 7 6 5 4 3 2 1 0 -0 0 2 2 2 1 2 2 2 2 2 1 -0 -1
12 11 10 9 9 9 9 8 9 9 9 8 7 7 7 8 8 8 8 8 7 7 7 6 5 4 3 2 1 0 -0 -1 0 1 2 1 1 1 2 2 2 2 1 0 -0
11 10 9 8 8 8 8 7 7 7 7 7 7 7 7 7 7 8 8 7 6 6 5 4 4 3 2 1 0 0 -0 -0 0 2 2 1 1 1 2 2 2 2 1 0 -0
9 9 8 8 7 7 7 6 6 6 6 6 6 7 7 7 7 7 7 6 5 4 4 3 2 2 2 2 1 1 -0 -0 1 2 2 2 1 1 1 1 1 1 0 -0 -1
9 9 8 7 7 6 6 6 6 5 5 5 6 6 6 6 6 6 6 5 5 4 3 2 2 3 3 2 2 1 0 0 1 2 2 2 1 1 1 1 1 0 -0 -1 -1
9 9 8 7 6 5 5 6 5 4 3 4 5 6 6 6 6 6 6 5 4 3 3 2 2 3 2 2 1 1 1 1 2 2 1 1 0 0 -0 0 0 -0 -1 -1 -1
8 9 9 7 5 5 5 5 4 3 2 3 5 5 5 5 5 5 5 4 4 3 3 2 3 3 2 2 2 1 2 2 2 1 1 0 -0 -0 -1 -0 0 -0 -0 -1 -1
8 8 8 6 5 5 5 4 3 1 1 3 4 4 4 4 4 4 4 4 3 3 2 2 2 3 2 2 2 2 2 2 1 1 0 0 -0 -0 -0 -0 0 0 -0 0 0
7 7 6 5 4 4 4 3 2 1 1 3 3 4 4 4 4 4 3 3 2 1 1 1 1 2 2 2 2 1 1 1 0 0 0 0 0 -0 -0 0 1 0 0 1 1
5 5 4 4 4 4 3 2 1 1 2 2 3 3 3 3 3 3 2 2 1 1 1 -0 0 1 2 2 1 0 0 -0 -0 -0 -0 0 0 0 0 1 1 1 1 1 1
4 3 3 3 3 3 2 2 1 2 2 2 3 2 2 2 2 2 1 1 1 1 1 0 -0 1 1 2 1 0 -0 -0 -0 -0 -0 -0 -0 0 1 2 2 2 1 1 1
3 2 2 3 3 2 2 1 2 2 3 3 2 2 1 1 2 1 1 1 1 1 1 0 0 0 1 1 1 0 -0 -0 -0 -1 -1 -0 -0 0 1 1 2 2 2 2 2
2 2 2 3 3 2 1 1 2 3 3 3 2 2 2 2 2 1 1 1 1 1 1 1 -0 -0 0 1 0 0 -0 -0 -0 -0 -1 -1 -0 0 1 2 2 2 2 2 2
3 3 3 3 2 2 1 2 2 3 3 2 2 2 2 2 2 2 2 2 2 2 1 0 -0 -0 -0 0 0 1 0 1 1 0 -0 -1 -0 1 1 2 2 2 2 2 2
4 4 3 3 2 2 2 2 2 2 2 2 2 2 2 2 2 2 2 2 2 2 1 1 0 -0 -0 -0 0 1 1 1 1 1 1 -0 -0 0 1 2 3 2 3 3 3
4 4 4 3 3 2 2 2 2 2 3 2 2 2 2 2 2 2 2 2 2 2 2 1 1 0 -0 -0 0 1 1 2 2 1 1 0 -0 0 1 2 3 3 3 4 4
4 4 4 3 3 3 3 3 3 3 3 3 2 2 2 2 2 2 2 2 2 2 2 2 1 1 0 0 1 1 2 2 2 1 1 1 1 1 1 2 3 3 4 4 4
4 4 4 4 4 4 4 3 3 3 3 3 3 2 2 2 1 1 2 2 2 2 2 1 1 1 1 1 2 2 2 2 2 1 1 1 1 1 2 3 3 4 4 3 3
4 4 4 4 4 4 4 4 3 3 3 3 3 2 2 2 1 2 2 2 2 2 2 1 1 1 1 1 2 2 2 2 1 2 1 1 1 1 2 3 4 4 3 3 2